Showing default

LEMU-NGE, 60532

Orbit data source: Space-Track

LEMU-NGE, 60532 is a Chilean payload satellite in SSO that was launched on Fri, 16 Aug 2024 UTC via an FALCON 9 launch vehicle from the Air Force Western Test Range (AFWTR). Payload-class satellites include a variety of spacecraft equipped with specific instruments for various scientific and technological missions. These include communications satellites like Starlink; space stations such as the ISS; scientific satellites like the Hubble; Earth observation satellites from companies like Planet Labs, Umbra, and HawkEye 360; GPS; miniature CubeSats for education and research; and military/defense satellites.

Loading next visibility...
Identifier
60532, 2024-149BS
Orbit
SSO
Country
Flag of UnknownUnknown / CHLE
Related business
Manufacturer
NanoAvionics
Mission
Operational Commercial Imaging
Bus & Motor
CUBESAT 6U, Unknown motor
Mass
~10 kg wet, ~10 kg dry
Launch date (UTC)
2024-08-16 (1 year ago)
Launch vehicle
FALCON 9
Launch site
Air Force Western Test Range (AFWTR)
Object type
Payload
Rocket body
Debris
Shape & HBR
Box + 2 Pan, 0.1 m
Radar Cross Section
0.080 m², Small (<0.1 m²)

Expand to show TLE details & history
Last TLE update: 10 hours ago

TLE from 10 hours ago
0 LEMU-NGE
1 60532U 24149BS  25245.72543520  .00002242  00000-0  20804-3 0  9999
2 60532  97.7136 320.9830 0000390 142.0631 218.0618 14.95414230 57006
Epoch: 2025-09-02T17:24Z
TLE epoch observation values (Epoch: 2025-09-02T17:24:37.601Z)
Latitude
0.00005°
Longitude
77.71377°
Altitude
584.349 km
Speed
7.568 km/s
True Right ascension
21h 23m 55s
True Declination
0° 00' 00"
Sunlit
Object was in full shadow at epoch
Visualization orbit readout
Latitude
Unknown
Longitude
Unknown
Altitude
Unknown
Speed
Unknown
Apparent Right ascension
Unknown
Apparent Declination
Unknown
Sunlit
N/A
Visualization observer readout
Local Sidereal Time
19:33:12
Azimuth
Unknown
Elevation
Unknown
Doppler factor
Unknown
Orbital elements
Apogee altitude
578.371 km
Perigee altitude
577.828 km
Semi-major axis
6,956.236 km
Eccentricity
0.00004
Inclination
97.7136°
RAAN
320.983°
Arg. of periapsis
142.0631°
True anomaly
218.05904°
Mean anomaly
218.0618°
Eccentric anomaly
218.06042°
Mean motion
3.74095 °/min
Orbital period
96.23 mins
BSTAR
0.00020804
Loading maneuver chart data...
Computing Atmospheric mass density...
Loading historical data...
Loading historical data...
Loading historical data...
Loading historical data...
Loading historical data...
Loading historical data...
Loading historical data...

Documentation

Showing up to 5 results
|